Terminal Aerodrome Forecast
Issued by NWS Jackson, KY

Home | Current Version | Previous Version | Text Only | Print | Product List | Glossary On
Versions: 1 2 3 4 5 6 7 8 9 10 11 12 13 14
000
FTUS43 KJKL 270103 AAA
TAFJKL
TAF AMD
KJKL 270103Z 2701/2724 21004KT 6SM BR BKN070
     FM270500 17004KT P6SM SCT045
     FM271000 00000KT 5SM BR FEW040
     FM271300 VRB03KT P6SM SCT150
     FM272100 20004KT P6SM VCSH SCT080=

USA.gov is the U.S. government's official web portal to all federal, state and local government web resources and services.